Date String (YYYY-MM-DD hh:mm:ss) UTC,Instrument flags,Ambient pressure (hPa),Sample flow (lpm),Bypass flow (lpm),Sample temperature (°C),Ambient temperature (°C),ASC tube jacket temperature (°C),LED temperature (°C),Box temperature (°C),Sample RH (%),Span deviation,Mass concentration (μg/m³),Mass concentration (μg/m³),Mass concentration (μg/m³)
DateTimeUTC,F1_M11,P_M11,Q1_M11,Q2_M11,T1_M11,T2_M11,T3_M11,T4_M11,T5_M11,U1_M11,ZSPAN_M11,X0_M11,X2_M11,X1_M11
2023-02-26 13:00:00,,0815.1,5.00,0.00,22.6,21.4,00.0,31.2,24.3,12.7,0000.0,0008.77,0003.82,0003.22
2023-02-26 13:01:00,,0814.9,5.00,0.00,22.6,21.2,00.0,31.2,24.3,12.7,0000.0,0008.47,0003.77,0003.22
2023-02-26 13:02:00,,0814.9,5.01,0.00,22.6,21.1,00.0,31.2,24.3,12.7,0000.0,0008.48,0003.77,0003.22
2023-02-26 13:03:00,,0814.9,5.01,0.00,22.5,21.1,00.0,31.2,24.3,12.8,0000.0,0007.86,0003.71,0003.22
2023-02-26 13:04:00,,0814.9,5.01,0.00,22.5,21.0,00.0,31.2,24.2,12.7,0000.0,0008.15,0003.73,0003.23
2023-02-26 13:05:00,,0815.2,4.99,0.00,22.5,20.9,00.0,31.2,24.2,12.7,0000.0,0008.31,0003.77,0003.22
2023-02-26 13:06:00,,0815.0,4.98,0.00,22.5,20.8,00.0,31.2,24.2,12.7,0000.0,0008.41,0003.78,0003.22
2023-02-26 13:07:00,,0814.9,5.02,0.00,22.5,20.7,00.0,31.2,24.2,12.7,0000.0,0008.54,0003.80,0003.22
2023-02-26 13:08:00,,0814.9,5.00,0.00,22.4,20.7,00.0,31.2,24.2,12.7,0000.0,0008.80,0003.87,0003.24
2023-02-26 13:09:00,,0814.9,5.00,0.00,22.4,20.6,00.0,31.2,24.1,12.7,0000.0,0008.94,0003.91,0003.23
2023-02-26 13:10:00,,0814.8,5.00,0.00,22.4,20.5,00.0,31.2,24.1,12.7,0000.0,0008.96,0003.91,0003.21
2023-02-26 13:11:00,,0814.8,5.00,0.00,22.4,20.5,00.0,31.2,24.1,12.7,0000.0,0008.84,0003.88,0003.19
2023-02-26 13:12:00,,0814.9,4.99,0.00,22.4,20.5,00.0,31.2,24.1,12.8,0000.0,0009.00,0003.90,0003.16
2023-02-26 13:13:00,,0814.9,5.00,0.00,22.3,20.5,00.0,31.1,24.1,12.9,0000.0,0009.23,0003.91,0003.13
2023-02-26 13:14:00,,0814.8,5.00,0.00,22.3,20.5,00.0,31.1,24.1,12.9,0000.0,0009.67,0003.91,0003.07
2023-02-26 13:15:00,,0814.8,5.00,0.00,22.3,20.5,00.0,31.1,24.0,12.9,0000.0,0009.50,0003.84,0003.01
2023-02-26 13:16:00,,0814.8,4.98,0.00,22.3,20.6,00.0,31.1,24.0,12.9,0000.0,0009.29,0003.76,0002.95
2023-02-26 13:17:00,,0814.9,5.01,0.00,22.4,21.5,00.0,31.1,24.2,12.9,0000.0,0009.12,0003.73,0002.90
2023-02-26 13:18:00,,0814.9,4.99,0.00,22.5,22.6,00.0,31.1,24.5,12.7,0000.0,0009.39,0003.68,0002.82
2023-02-26 13:19:00,,0814.9,5.01,0.00,22.6,23.1,00.0,31.1,24.7,12.6,0000.0,0009.79,0003.64,0002.75
2023-02-26 13:20:00,,0814.6,5.01,0.00,22.6,22.7,00.0,31.2,24.6,12.5,0000.0,0009.90,0003.56,0002.67
2023-02-26 13:21:00,,0814.6,5.00,0.00,22.6,22.3,00.0,31.2,24.6,12.5,0000.0,0009.99,0003.52,0002.62
2023-02-26 13:22:00,,0814.7,4.99,0.00,22.6,22.0,00.0,31.2,24.5,12.5,0000.0,0009.96,0003.48,0002.58
2023-02-26 13:23:00,,0815.0,4.99,0.00,22.6,21.6,00.0,31.2,24.4,12.5,0000.0,0010.27,0003.46,0002.54
2023-02-26 13:24:00,,0815.1,5.00,0.00,22.6,21.4,00.0,31.3,24.3,12.5,0000.0,0010.21,0003.41,0002.51
2023-02-26 13:25:00,,0815.1,4.99,0.00,22.6,21.1,00.0,31.3,24.3,12.5,0000.0,0009.90,0003.40,0002.47
2023-02-26 13:26:00,,0815.0,5.00,0.00,22.6,20.9,00.0,31.3,24.2,12.5,0000.0,0009.36,0003.40,0002.45
2023-02-26 13:27:00,,0814.7,5.01,0.00,22.5,20.8,00.0,31.2,24.1,12.6,0000.0,0008.84,0003.43,0002.44
2023-02-26 13:28:00,,0814.7,5.00,0.00,22.5,20.7,00.0,31.2,24.1,12.6,0000.0,0009.01,0003.41,0002.42
2023-02-26 13:29:00,,0814.9,5.00,0.00,22.5,20.6,00.0,31.2,24.2,12.6,0000.0,0008.68,0003.40,0002.43
2023-02-26 13:30:00,,0815.0,5.00,0.00,22.4,20.5,00.0,31.2,24.1,12.7,0000.0,0008.05,0003.38,0002.42
2023-02-26 13:31:00,,0815.1,5.01,0.00,22.4,20.4,00.0,31.2,24.0,12.8,0000.0,0008.60,0003.40,0002.47
2023-02-26 13:32:00,,0815.0,5.00,0.00,22.4,20.3,00.0,31.2,24.0,12.9,0000.0,0009.58,0003.41,0002.51
2023-02-26 13:33:00,,0815.1,4.99,0.00,22.3,20.3,00.0,31.2,24.0,12.9,0000.0,0009.71,0003.44,0002.54
2023-02-26 13:34:00,,0815.1,5.00,0.00,22.3,20.3,00.0,31.2,24.0,12.9,0000.0,0009.28,0003.45,0002.57
2023-02-26 13:35:00,,0815.0,5.00,0.00,22.3,20.3,00.0,31.1,24.0,12.9,0000.0,0009.62,0003.47,0002.59
2023-02-26 13:36:00,,0815.1,5.00,0.00,22.3,20.4,00.0,31.1,24.0,12.8,0000.0,0009.56,0003.48,0002.62
2023-02-26 13:37:00,,0815.0,5.01,0.00,22.3,20.4,00.0,31.1,24.0,12.8,0000.0,0009.65,0003.50,0002.62
2023-02-26 13:38:00,,0814.7,5.00,0.00,22.2,20.4,00.0,31.1,23.9,12.8,0000.0,0009.64,0003.50,0002.63
2023-02-26 13:39:00,,0814.9,4.98,0.00,22.2,21.0,00.0,31.1,24.0,12.8,0000.0,0009.57,0003.49,0002.62
2023-02-26 13:40:00,,0814.9,4.99,0.00,22.4,22.2,00.0,31.0,24.3,12.7,0000.0,0009.97,0003.54,0002.62
2023-02-26 13:41:00,,0814.8,5.01,0.00,22.5,23.2,00.0,31.1,24.6,12.6,0000.0,0010.10,0003.57,0002.62
2023-02-26 13:42:00,,0815.1,5.01,0.00,22.6,23.1,00.0,31.1,24.6,12.5,0000.0,0009.68,0003.54,0002.58
2023-02-26 13:43:00,,0815.2,5.01,0.00,22.6,22.6,00.0,31.2,24.6,12.4,0000.0,0008.63,0003.53,0002.53
2023-02-26 13:44:00,,0815.0,5.02,0.00,22.6,22.2,00.0,31.2,24.5,12.4,0000.0,0008.62,0003.55,0002.52
2023-02-26 13:45:00,,0814.8,5.00,0.00,22.6,21.9,00.0,31.2,24.4,12.4,0000.0,0008.67,0003.54,0002.50
2023-02-26 13:46:00,,0814.9,5.00,0.00,22.6,21.6,00.0,31.2,24.4,12.4,0000.0,0008.91,0003.52,0002.49
2023-02-26 13:47:00,,0814.9,5.01,0.00,22.6,21.4,00.0,31.2,24.4,12.4,0000.0,0009.28,0003.49,0002.47
2023-02-26 13:48:00,,0814.9,5.00,0.00,22.6,21.2,00.0,31.3,24.3,12.4,0000.0,0009.18,0003.47,0002.47
2023-02-26 13:49:00,,0815.0,5.00,0.00,22.6,21.1,00.0,31.3,24.3,12.4,0000.0,0009.11,0003.44,0002.46
2023-02-26 13:50:00,,0815.0,4.99,0.00,22.6,21.0,00.0,31.3,24.3,12.4,0000.0,0009.16,0003.47,0002.45
2023-02-26 13:51:00,,0814.6,5.00,0.00,22.6,20.9,00.0,31.3,24.3,12.5,0000.0,0008.96,0003.46,0002.46
2023-02-26 13:52:00,,0814.5,5.01,0.00,22.6,20.9,00.0,31.3,24.3,12.5,0000.0,0009.09,0003.44,0002.45
2023-02-26 13:53:00,,0814.4,5.00,0.00,22.5,20.9,00.0,31.3,24.3,12.6,0000.0,0008.69,0003.46,0002.49
2023-02-26 13:54:00,,0814.4,5.00,0.00,22.5,20.8,00.0,31.2,24.2,12.7,0000.0,0008.60,0003.51,0002.55
2023-02-26 13:55:00,,0814.6,5.00,0.00,22.5,20.8,00.0,31.2,24.2,12.8,0000.0,0008.70,0003.55,0002.60
2023-02-26 13:56:00,,0814.6,5.00,0.00,22.5,20.7,00.0,31.2,24.2,12.9,0000.0,0008.74,0003.57,0002.66
2023-02-26 13:57:00,,0814.4,4.99,0.00,22.4,20.7,00.0,31.2,24.2,13.2,0000.0,0008.31,0003.67,0002.84
2023-02-26 13:58:00,,0814.4,4.99,0.00,22.4,20.7,00.0,31.2,24.2,13.3,0000.0,0008.00,0003.80,0003.04
2023-02-26 13:59:00,,0814.4,5.02,0.00,22.4,20.7,00.0,31.2,24.1,13.5,0000.0,0007.98,0003.96,0003.22
